Mission

  • Our mission is to promote and protect San Carlos Airport and its flight operations, and to enhance the safety and spirit of general aviation through participation in local community activities.

Background

  • The San Carlos Airport Association (SCAA) has represented pilots and friends of the Airport since our founding in 1986.

Noise Abatement Procedures

  • San Carlos Airport is surrounded by noise sensitive neighborhoods. All pilots are encouraged to follow the noise abatement procedures

Live View of San Carlos Airport (SQL)

San Carlos METAR

  • KSQL 200247Z 26011KT 10SM SKC 18/09 A2998

    A METAR describes the current weather at an airport. Click here to learn how to read a METAR.


SQL Notams

  • Click here and enter KSQL in the Locations box to read the Notices to Airmen (Notams) about San Carlos Airport.

ASOS from Half Moon Bay Airport (HAF)

Chapter

Contact

  • Email: webmaster at sancarlosairport.org
  • twitter
  • Our mailing address:
    San Carlos Airport Association
    P.O. Box 1183
    San Carlos, CA 94070
 

Update on Airport Day Sat. 9/30/17


from the Airport’s facebook page:

Copper’s Dream Rescue, an Airport Day institution, is returning again this September 30th. The pictures below are of last year’s attendees/adoptees. Be sure to stop by between 10 AM and 3 PM and spend some time with some loving and deserving dogs. Parking and entry to the event is FREE. The love of a dog is unconditional! #SQLAirportDay2017